When you browse on this site, cookies collect data to enhance your experience and personalize the content and advertising you see.
Visit our Privacy Policy to learn more. By continuing to use the site, you agree to this use of cookies and data.

Hourly Weather Wiktoria

Today, 10 July, Friday

Time Temperature Precipitation Wind Pressure Humidity
00:00 +7°C° 0 mm 3 mps 757 mmHg 91%
01:00 +7°C° 0 mm 3 mps 757 mmHg 92%
02:00 +7°C° 0 mm 3 mps 757 mmHg 92%
03:00 +7°C° 0 mm 3 mps 757 mmHg 93%
04:00 +7°C° 0 mm 3 mps 756 mmHg 94%
05:00 +7°C° 0 mm 3 mps 756 mmHg 92%
06:00 +8°C° 0 mm 3 mps 756 mmHg 90%
07:00 +8°C° 0 mm 3 mps 756 mmHg 88%
08:00 +8°C° 0 mm 4 mps 756 mmHg 86%
09:00 +10°C° 0 mm 4 mps 756 mmHg 83%
10:00 +11°C° 0 mm 4 mps 756 mmHg 81%
11:00 +10°C° 0.4 mm 5 mps 756 mmHg 82%
12:00 +10°C° 0.4 mm 5 mps 755 mmHg 83%
13:00 +12°C° 0.4 mm 5 mps 754 mmHg 85%
14:00 +11°C° 0.4 mm 4 mps 754 mmHg 87%
15:00 +11°C° 0.4 mm 4 mps 754 mmHg 89%
16:00 +10°C° 0 mm 4 mps 754 mmHg 93%
17:00 +10°C° 0.1 mm 4 mps 754 mmHg 92%
18:00 +8°C° 0.1 mm 4 mps 753 mmHg 91%
19:00 +8°C° 0.1 mm 4 mps 753 mmHg 91%
20:00 +9°C° 0.1 mm 3 mps 753 mmHg 91%
21:00 +9°C° 0.1 mm 3 mps 753 mmHg 91%
22:00 +9°C° 0.1 mm 3 mps 753 mmHg 91%
23:00 +9°C° 0.2 mm 3 mps 753 mmHg 91%

Tomorrow, 11 July, Saturday

Time Temperature Precipitation Wind Pressure Humidity
00:00 +8°C° 0.2 mm 3 mps 753 mmHg 91%
01:00 +8°C° 0.2 mm 3 mps 752 mmHg 91%
02:00 +8°C° 0.2 mm 3 mps 752 mmHg 92%
03:00 +7°C° 0.2 mm 3 mps 751 mmHg 92%
04:00 +7°C° 0.2 mm 2 mps 751 mmHg 93%
05:00 +7°C° 0.4 mm 2 mps 751 mmHg 93%
06:00 +8°C° 0.4 mm 2 mps 751 mmHg 93%
07:00 +8°C° 0.4 mm 2 mps 750 mmHg 93%
08:00 +9°C° 0.6 mm 2 mps 750 mmHg 94%
09:00 +9°C° 0.6 mm 2 mps 750 mmHg 94%
10:00 +9°C° 0.6 mm 2 mps 750 mmHg 95%
11:00 +10°C° 0.4 mm 2 mps 750 mmHg 94%
12:00 +10°C° 0.4 mm 2 mps 750 mmHg 93%
13:00 +12°C° 0.4 mm 2 mps 749 mmHg 92%
14:00 +12°C° 0.1 mm 2 mps 749 mmHg 92%
15:00 +12°C° 0.1 mm 2 mps 749 mmHg 91%
16:00 +12°C° 0.1 mm 2 mps 748 mmHg 91%
17:00 +12°C° 0.4 mm 2 mps 748 mmHg 92%
18:00 +10°C° 0.4 mm 2 mps 748 mmHg 92%
19:00 +9°C° 0.4 mm 2 mps 748 mmHg 93%
20:00 +9°C° 0.3 mm 2 mps 749 mmHg 93%
21:00 +10°C° 0.3 mm 1 mps 749 mmHg 92%
22:00 +9°C° 0.3 mm 1 mps 749 mmHg 92%
23:00 +9°C° 0.3 mm 1 mps 749 mmHg 93%

Day after tomorrow, 12 July, Sunday

Time Temperature Precipitation Wind Pressure Humidity
00:00 +9°C° 0.3 mm 1 mps 749 mmHg 94%
01:00 +8°C° 0.3 mm 1 mps 749 mmHg 95%
02:00 +8°C° 0.2 mm 1 mps 749 mmHg 95%
03:00 +8°C° 0.2 mm 1 mps 749 mmHg 95%
04:00 +7°C° 0.2 mm 2 mps 749 mmHg 95%
05:00 +7°C° 0.2 mm 2 mps 749 mmHg 95%
06:00 +7°C° 0.2 mm 2 mps 750 mmHg 95%
07:00 +7°C° 0.2 mm 2 mps 750 mmHg 94%
08:00 +8°C° 0 mm 2 mps 750 mmHg 92%
09:00 +10°C° 0 mm 1 mps 751 mmHg 89%
10:00 +11°C° 0 mm 1 mps 751 mmHg 87%
11:00 +10°C° 0.3 mm 2 mps 751 mmHg 85%
12:00 +11°C° 0.3 mm 3 mps 751 mmHg 84%
13:00 +11°C° 0.3 mm 3 mps 750 mmHg 83%
14:00 +11°C° 0.1 mm 3 mps 750 mmHg 84%
15:00 +11°C° 0.1 mm 3 mps 750 mmHg 84%
16:00 +10°C° 0.1 mm 3 mps 750 mmHg 85%
17:00 +9°C° 0 mm 3 mps 750 mmHg 88%
18:00 +8°C° 0 mm 3 mps 750 mmHg 91%
19:00 +7°C° 0 mm 2 mps 751 mmHg 93%
20:00 +7°C° 0 mm 2 mps 751 mmHg 93%
21:00 +7°C° 0 mm 3 mps 751 mmHg 93%
22:00 +7°C° 0 mm 3 mps 751 mmHg 93%
23:00 +7°C° 0 mm 3 mps 752 mmHg 93%

13 July, Monday

Time Temperature Precipitation Wind Pressure Humidity
00:00 +6°C° 0 mm 2 mps 752 mmHg 93%
01:00 +6°C° 0 mm 2 mps 752 mmHg 93%
02:00 +6°C° 0 mm 2 mps 752 mmHg 92%
03:00 +5°C° 0 mm 2 mps 752 mmHg 92%
04:00 +6°C° 0 mm 1 mps 752 mmHg 91%
05:00 +5°C° 0 mm 2 mps 753 mmHg 92%
06:00 +5°C° 0 mm 2 mps 753 mmHg 92%
07:00 +4°C° 0 mm 3 mps 753 mmHg 93%
08:00 +7°C° 0 mm 3 mps 754 mmHg 90%
09:00 +7°C° 0 mm 4 mps 754 mmHg 87%
10:00 +9°C° 0 mm 5 mps 754 mmHg 84%
11:00 +12°C° 0 mm 5 mps 754 mmHg 78%
12:00 +14°C° 0 mm 5 mps 754 mmHg 72%
13:00 +15°C° 0 mm 5 mps 753 mmHg 66%
14:00 +15°C° 0 mm 5 mps 753 mmHg 69%
15:00 +15°C° 0 mm 5 mps 754 mmHg 71%
16:00 +14°C° 0 mm 5 mps 754 mmHg 74%
17:00 +13°C° 0 mm 5 mps 754 mmHg 77%
18:00 +11°C° 0 mm 4 mps 755 mmHg 79%
19:00 +10°C° 0 mm 4 mps 755 mmHg 82%
20:00 +8°C° 0 mm 4 mps 756 mmHg 85%
21:00 +7°C° 0 mm 4 mps 756 mmHg 87%
22:00 +8°C° 0 mm 3 mps 756 mmHg 89%
23:00 +7°C° 0 mm 3 mps 757 mmHg 90%

14 July, Tuesday

Time Temperature Precipitation Wind Pressure Humidity
00:00 +7°C° 0 mm 3 mps 757 mmHg 91%
01:00 +7°C° 0 mm 3 mps 757 mmHg 92%
02:00 +5°C° 0 mm 3 mps 757 mmHg 92%
03:00 +5°C° 0 mm 3 mps 757 mmHg 92%
04:00 +5°C° 0 mm 3 mps 757 mmHg 92%
05:00 +5°C° 0 mm 3 mps 757 mmHg 92%
06:00 +5°C° 0 mm 3 mps 757 mmHg 92%
07:00 +5°C° 0 mm 3 mps 758 mmHg 93%
08:00 +7°C° 0 mm 3 mps 758 mmHg 87%
09:00 +9°C° 0 mm 3 mps 758 mmHg 82%
10:00 +11°C° 0 mm 3 mps 758 mmHg 77%
11:00 +12°C° 0 mm 3 mps 758 mmHg 72%
12:00 +13°C° 0 mm 3 mps 757 mmHg 68%
13:00 +15°C° 0 mm 4 mps 757 mmHg 63%
14:00 +14°C° 0 mm 3 mps 757 mmHg 65%
15:00 +14°C° 0 mm 3 mps 757 mmHg 67%
16:00 +15°C° 0 mm 2 mps 757 mmHg 69%
17:00 +13°C° 0 mm 2 mps 757 mmHg 72%
18:00 +10°C° 0 mm 2 mps 758 mmHg 75%
19:00 +8°C° 0 mm 2 mps 758 mmHg 78%
20:00 +7°C° 0 mm 2 mps 758 mmHg 79%
21:00 +6°C° 0 mm 2 mps 758 mmHg 81%
22:00 +6°C° 0 mm 2 mps 759 mmHg 83%
23:00 +5°C° 0 mm 2 mps 758 mmHg 85%

15 July, Wednesday

Time Temperature Precipitation Wind Pressure Humidity
00:00 +5°C° 0 mm 2 mps 758 mmHg 87%
01:00 +4°C° 0 mm 2 mps 758 mmHg 88%
02:00 +4°C° 0 mm 2 mps 758 mmHg 89%
03:00 +4°C° 0 mm 2 mps 758 mmHg 89%
04:00 +4°C° 0 mm 1 mps 757 mmHg 90%
05:00 +4°C° 0 mm 1 mps 757 mmHg 89%
06:00 +4°C° 0 mm 1 mps 758 mmHg 89%
07:00 +4°C° 0 mm 1 mps 758 mmHg 89%
08:00 +5°C° 0 mm 1 mps 758 mmHg 83%
09:00 +7°C° 0 mm 1 mps 758 mmHg 78%
10:00 +8°C° 0 mm 0 mps 758 mmHg 72%
11:00 +9°C° 0 mm 0 mps 757 mmHg 69%
12:00 +12°C° 0 mm 1 mps 757 mmHg 65%
13:00 +13°C° 0 mm 1 mps 756 mmHg 62%
14:00 +13°C° 0 mm 1 mps 756 mmHg 64%
15:00 +13°C° 0 mm 1 mps 756 mmHg 67%
16:00 +12°C° 0 mm 0 mps 755 mmHg 69%
17:00 +10°C° 0 mm 0 mps 756 mmHg 74%
18:00 +8°C° 0 mm 0 mps 756 mmHg 78%
19:00 +6°C° 0 mm 0 mps 756 mmHg 83%
20:00 +7°C° 0 mm 1 mps 756 mmHg 84%
21:00 +6°C° 0 mm 1 mps 756 mmHg 85%
22:00 +6°C° 0 mm 1 mps 756 mmHg 86%
23:00 +5°C° 0 mm 1 mps 756 mmHg 87%
Show more